Time,TemperatureF,DewpointF,PressureIn,WindDirection,WindDirectionDegrees,WindSpeedMPH,WindSpeedGustMPH,Humidity,HourlyPrecipIn,Conditions,Clouds,dailyrainin,SoftwareType,DateUTC
2013-01-27 00:00:00,35.8,2.5,30.02,NNE,19,0.0,0.0,24,0.00,,CLR,0.00,VWS V14.01,2013-01-27 05:00:00,
2013-01-27 00:02:00,35.8,2.5,30.02,NNE,19,0.0,0.0,24,0.00,,CLR,0.00,VWS V14.01,2013-01-27 05:02:00,
2013-01-27 00:07:00,35.6,0.5,30.02,NNE,19,0.0,0.0,22,0.00,,CLR,0.00,VWS V14.01,2013-01-27 05:07:00,
2013-01-27 00:12:00,35.8,0.7,30.02,NNE,19,0.0,0.0,22,0.00,,CLR,0.00,VWS V14.01,2013-01-27 05:12:00,
2013-01-27 00:17:00,36.1,1.0,30.02,NNE,19,0.0,0.0,22,0.00,,CLR,0.00,VWS V14.01,2013-01-27 05:17:00,
2013-01-27 00:22:00,36.1,1.0,30.02,NNE,19,0.0,0.0,22,0.00,,CLR,0.00,VWS V14.01,2013-01-27 05:22:00,
2013-01-27 00:27:00,36.3,3.0,30.02,NNE,19,0.0,0.0,24,0.00,,CLR,0.00,VWS V14.01,2013-01-27 05:27:00,
2013-01-27 00:32:00,36.3,3.0,30.02,NNE,19,0.0,0.0,24,0.00,,CLR,0.00,VWS V14.01,2013-01-27 05:32:00,
2013-01-27 00:38:00,36.0,2.7,30.02,NNE,19,0.0,0.0,24,0.00,,CLR,0.00,VWS V14.01,2013-01-27 05:38:00,
2013-01-27 00:43:00,35.6,4.9,30.02,NNE,19,0.0,0.0,27,0.00,,CLR,0.00,VWS V14.01,2013-01-27 05:43:00,
2013-01-27 00:48:00,35.4,4.8,30.02,NNE,19,0.0,0.0,27,0.00,,CLR,0.00,VWS V14.01,2013-01-27 05:48:00,
2013-01-27 00:53:00,35.4,4.8,30.02,NNE,19,0.0,0.0,27,0.00,,CLR,0.00,VWS V14.01,2013-01-27 05:53:00,
2013-01-27 00:58:00,35.4,4.8,30.02,NNE,19,2.7,2.7,27,0.00,,CLR,0.00,VWS V14.01,2013-01-27 05:58:00,
2013-01-27 01:03:00,34.9,4.3,30.02,NNE,19,3.6,4.0,27,0.00,,CLR,0.00,VWS V14.01,2013-01-27 06:03:00,
2013-01-27 01:08:00,34.5,4.0,30.02,NNE,19,0.0,0.0,27,0.00,,CLR,0.00,VWS V14.01,2013-01-27 06:08:00,
2013-01-27 01:13:00,34.3,2.2,30.02,NNE,19,0.0,0.0,25,0.00,,CLR,0.00,VWS V14.01,2013-01-27 06:13:00,
2013-01-27 01:18:00,34.5,-0.4,30.02,NNE,19,0.0,0.0,22,0.00,,CLR,0.00,VWS V14.01,2013-01-27 06:18:00,
2013-01-27 01:23:00,34.5,-0.4,30.02,NNE,19,0.0,0.0,22,0.00,,CLR,0.00,VWS V14.01,2013-01-27 06:23:00,
2013-01-27 01:29:00,34.7,-0.2,30.02,NNE,19,0.0,0.0,22,0.00,,CLR,0.00,VWS V14.01,2013-01-27 06:29:00,
2013-01-27 01:34:00,34.7,2.5,30.02,NNE,19,0.0,0.0,25,0.00,,CLR,0.00,VWS V14.01,2013-01-27 06:34:00,
2013-01-27 01:39:00,34.5,2.3,30.02,NNE,19,0.0,0.0,25,0.00,,CLR,0.00,VWS V14.01,2013-01-27 06:39:00,
2013-01-27 01:44:00,34.5,2.3,30.02,NNE,19,0.0,0.0,25,0.00,,CLR,0.00,VWS V14.01,2013-01-27 06:44:00,
2013-01-27 01:49:00,34.5,2.3,30.02,NNE,19,0.0,0.0,25,0.00,,CLR,0.00,VWS V14.01,2013-01-27 06:49:00,
2013-01-27 01:54:00,34.5,2.3,30.02,NNE,19,0.0,0.0,25,0.00,,CLR,0.00,VWS V14.01,2013-01-27 06:54:00,
2013-01-27 01:59:00,34.7,2.5,30.05,NE,54,0.0,0.0,25,0.00,,CLR,0.00,VWS V14.01,2013-01-27 06:59:00,
2013-01-27 02:04:00,34.7,2.5,30.05,NE,54,0.0,0.0,25,0.00,,CLR,0.00,VWS V14.01,2013-01-27 07:04:00,
2013-01-27 02:13:00,34.3,2.2,30.05,NE,54,0.0,0.0,25,0.00,,CLR,0.00,VWS V14.01,2013-01-27 07:13:00,
2013-01-27 02:18:00,34.3,2.2,30.05,SE,127,0.0,0.0,25,0.00,,CLR,0.00,VWS V14.01,2013-01-27 07:18:00,
2013-01-27 02:23:00,34.5,2.3,30.05,SE,127,0.0,0.0,25,0.00,,CLR,0.00,VWS V14.01,2013-01-27 07:23:00,
2013-01-27 02:28:00,34.5,2.3,30.05,SE,127,0.0,0.0,25,0.00,,CLR,0.00,VWS V14.01,2013-01-27 07:28:00,
2013-01-27 02:33:00,34.5,2.3,30.05,SE,127,0.0,0.0,25,0.00,,CLR,0.00,VWS V14.01,2013-01-27 07:33:00,
2013-01-27 02:38:00,34.0,1.9,30.05,SE,127,0.0,0.0,25,0.00,,CLR,0.00,VWS V14.01,2013-01-27 07:38:00,
2013-01-27 02:43:00,33.6,1.6,30.05,ESE,110,2.7,2.7,25,0.00,,CLR,0.00,VWS V14.01,2013-01-27 07:43:00,
2013-01-27 02:48:00,33.3,1.2,30.05,ESE,111,0.0,2.7,25,0.00,,CLR,0.00,VWS V14.01,2013-01-27 07:48:00,
2013-01-27 02:53:00,32.7,0.8,30.05,ESE,111,0.0,0.0,25,0.00,,CLR,0.00,VWS V14.01,2013-01-27 07:53:00,
2013-01-27 02:59:00,32.5,0.6,30.05,ESE,111,0.0,0.0,25,0.00,,CLR,0.00,VWS V14.01,2013-01-27 07:59:00,
2013-01-27 03:04:00,32.4,2.9,30.05,ESE,111,0.0,0.0,28,0.00,,CLR,0.00,VWS V14.01,2013-01-27 08:04:00,
2013-01-27 03:09:00,32.2,2.8,30.05,ESE,111,0.0,0.0,28,0.00,,CLR,0.00,VWS V14.01,2013-01-27 08:09:00,
2013-01-27 03:14:00,31.8,3.9,30.05,ESE,111,0.0,0.0,30,0.00,,CLR,0.00,VWS V14.01,2013-01-27 08:14:00,
2013-01-27 03:19:00,31.6,3.8,30.05,East,91,0.0,0.0,30,0.00,,CLR,0.00,VWS V14.01,2013-01-27 08:19:00,
2013-01-27 03:24:00,31.5,3.6,30.05,East,91,2.2,2.2,30,0.00,,CLR,0.00,VWS V14.01,2013-01-27 08:24:00,
2013-01-27 03:29:00,31.3,4.2,30.05,East,91,0.0,2.2,31,0.00,,CLR,0.00,VWS V14.01,2013-01-27 08:29:00,
2013-01-27 03:34:00,31.1,4.0,30.05,East,91,0.0,0.0,31,0.00,,CLR,0.00,VWS V14.01,2013-01-27 08:34:00,
2013-01-27 03:39:00,30.6,4.2,30.05,East,91,2.2,2.2,32,0.00,,CLR,0.00,VWS V14.01,2013-01-27 08:39:00,
2013-01-27 03:44:00,30.4,4.7,30.05,East,91,0.0,2.2,33,0.00,,CLR,0.00,VWS V14.01,2013-01-27 08:44:00,
2013-01-27 03:49:00,30.2,4.6,30.05,East,91,2.7,2.7,33,0.00,,CLR,0.00,VWS V14.01,2013-01-27 08:49:00,
2013-01-27 03:55:00,30.2,5.2,30.05,East,91,3.6,3.6,34,0.00,,CLR,0.00,VWS V14.01,2013-01-27 08:55:00,
2013-01-27 04:00:00,30.0,5.1,30.05,NE,38,3.6,4.0,34,0.00,,CLR,0.00,VWS V14.01,2013-01-27 09:00:00,
2013-01-27 04:05:00,29.8,4.9,30.05,NE,38,2.7,3.1,34,0.00,,CLR,0.00,VWS V14.01,2013-01-27 09:05:00,
2013-01-27 04:10:00,29.5,4.6,30.05,NE,38,0.0,0.0,34,0.00,,CLR,0.00,VWS V14.01,2013-01-27 09:10:00,
2013-01-27 04:15:00,28.9,4.1,30.05,NE,38,0.0,0.0,34,0.00,,CLR,0.00,VWS V14.01,2013-01-27 09:15:00,
2013-01-27 04:20:00,28.9,5.9,30.05,NE,38,2.2,2.2,37,0.00,,CLR,0.00,VWS V14.01,2013-01-27 09:20:00,
2013-01-27 04:25:00,28.9,5.9,30.05,NE,38,0.0,0.0,37,0.00,,CLR,0.00,VWS V14.01,2013-01-27 09:25:00,
2013-01-27 04:30:00,28.8,5.8,30.05,NE,38,0.0,0.0,37,0.00,,CLR,0.00,VWS V14.01,2013-01-27 09:30:00,
2013-01-27 04:35:00,28.8,5.8,30.05,NE,38,0.0,0.0,37,0.00,,CLR,0.00,VWS V14.01,2013-01-27 09:35:00,
2013-01-27 04:40:00,28.6,5.6,30.05,NE,38,0.0,0.0,37,0.00,,CLR,0.00,VWS V14.01,2013-01-27 09:40:00,
2013-01-27 04:46:00,28.4,6.1,30.08,NE,38,0.0,0.0,38,0.00,,CLR,0.00,VWS V14.01,2013-01-27 09:46:00,
2013-01-27 04:51:00,28.2,5.9,30.08,NE,38,0.0,0.0,38,0.00,,CLR,0.00,VWS V14.01,2013-01-27 09:51:00,
2013-01-27 04:56:00,28.2,5.9,30.08,NE,38,0.0,0.0,38,0.00,,CLR,0.00,VWS V14.01,2013-01-27 09:56:00,
2013-01-27 05:01:00,28.2,5.9,30.08,NE,38,0.0,0.0,38,0.00,,CLR,0.00,VWS V14.01,2013-01-27 10:01:00,
2013-01-27 05:06:00,28.2,7.6,30.08,NE,38,0.0,0.0,41,0.00,,CLR,0.00,VWS V14.01,2013-01-27 10:06:00,
2013-01-27 05:11:00,28.6,7.9,30.08,NE,38,2.2,2.7,41,0.00,,CLR,0.00,VWS V14.01,2013-01-27 10:11:00,
2013-01-27 05:16:00,28.6,7.9,30.08,NE,38,0.0,0.0,41,0.00,,CLR,0.00,VWS V14.01,2013-01-27 10:16:00,
2013-01-27 05:21:00,28.4,7.2,30.08,NE,38,0.0,0.0,40,0.00,,CLR,0.00,VWS V14.01,2013-01-27 10:21:00,
2013-01-27 05:26:00,28.0,7.4,30.08,NE,38,0.0,0.0,41,0.00,,CLR,0.00,VWS V14.01,2013-01-27 10:26:00,
2013-01-27 05:31:00,28.0,7.4,30.08,NE,38,2.7,2.7,41,0.00,,CLR,0.00,VWS V14.01,2013-01-27 10:31:00,
2013-01-27 05:36:00,28.0,7.4,30.08,NE,38,0.0,2.2,41,0.00,,CLR,0.00,VWS V14.01,2013-01-27 10:36:00,
2013-01-27 05:41:00,27.9,7.2,30.08,NE,38,0.0,0.0,41,0.00,,CLR,0.00,VWS V14.01,2013-01-27 10:41:00,
2013-01-27 05:46:00,27.5,6.9,30.08,NE,38,0.0,0.0,41,0.00,,CLR,0.00,VWS V14.01,2013-01-27 10:46:00,
2013-01-27 05:52:00,27.0,6.4,30.08,NE,38,0.0,0.0,41,0.00,,CLR,0.00,VWS V14.01,2013-01-27 10:52:00,
2013-01-27 05:57:00,26.8,6.2,30.08,NE,38,0.0,0.0,41,0.00,,CLR,0.00,VWS V14.01,2013-01-27 10:57:00,
2013-01-27 06:02:00,27.0,6.9,30.08,NE,38,0.0,0.0,42,0.00,,CLR,0.00,VWS V14.01,2013-01-27 11:02:00,
2013-01-27 06:07:00,27.0,6.9,30.08,NE,38,0.0,0.0,42,0.00,,CLR,0.00,VWS V14.01,2013-01-27 11:07:00,
2013-01-27 06:12:00,27.0,6.9,30.08,NE,38,0.0,0.0,42,0.00,,CLR,0.00,VWS V14.01,2013-01-27 11:12:00,
2013-01-27 06:17:00,27.0,6.9,30.08,NE,38,0.0,0.0,42,0.00,,CLR,0.00,VWS V14.01,2013-01-27 11:17:00,
2013-01-27 06:22:00,27.0,6.4,30.08,NE,38,0.0,0.0,41,0.00,,CLR,0.00,VWS V14.01,2013-01-27 11:22:00,
2013-01-27 06:27:00,26.8,6.2,30.08,NE,38,0.0,0.0,41,0.00,,CLR,0.00,VWS V14.01,2013-01-27 11:27:00,
2013-01-27 06:32:00,26.2,6.3,30.08,NE,38,0.0,0.0,42,0.00,,CLR,0.00,VWS V14.01,2013-01-27 11:32:00,
2013-01-27 06:38:00,26.1,6.1,30.08,NE,38,0.0,0.0,42,0.00,,CLR,0.00,VWS V14.01,2013-01-27 11:38:00,
2013-01-27 06:43:00,26.1,6.1,30.11,NE,38,0.0,0.0,42,0.00,,CLR,0.00,VWS V14.01,2013-01-27 11:43:00,
2013-01-27 06:48:00,25.5,5.6,30.11,NE,38,0.0,0.0,42,0.00,,CLR,0.00,VWS V14.01,2013-01-27 11:48:00,
2013-01-27 06:53:00,25.2,5.3,30.11,NE,38,0.0,0.0,42,0.00,,CLR,0.00,VWS V14.01,2013-01-27 11:53:00,
2013-01-27 06:58:00,24.6,4.8,30.11,NE,38,0.0,0.0,42,0.00,,CLR,0.00,VWS V14.01,2013-01-27 11:58:00,
2013-01-27 07:03:00,24.3,4.5,30.11,NE,38,0.0,0.0,42,0.00,,SCT012,0.00,VWS V14.01,2013-01-27 12:03:00,
2013-01-27 07:08:00,24.3,4.5,30.11,NE,38,0.0,0.0,42,0.00,,SCT012,0.00,VWS V14.01,2013-01-27 12:08:00,
2013-01-27 07:13:00,24.1,4.3,30.11,NE,38,0.0,0.0,42,0.00,,SCT012,0.00,VWS V14.01,2013-01-27 12:13:00,
2013-01-27 07:18:00,23.9,4.2,30.11,NE,38,0.0,0.0,42,0.00,,SCT012,0.00,VWS V14.01,2013-01-27 12:18:00,
2013-01-27 07:24:00,23.7,4.0,30.11,NE,38,0.0,0.0,42,0.00,,SCT012,0.00,VWS V14.01,2013-01-27 12:24:00,
2013-01-27 07:29:00,24.1,4.8,30.11,NE,38,0.0,0.0,43,0.00,,SCT012,0.00,VWS V14.01,2013-01-27 12:29:00,
2013-01-27 07:34:00,24.4,5.2,30.11,NE,38,0.0,0.0,43,0.00,,SCT012,0.00,VWS V14.01,2013-01-27 12:34:00,
2013-01-27 07:39:00,24.4,5.2,30.11,NE,38,0.0,0.0,43,0.00,,SCT012,0.00,VWS V14.01,2013-01-27 12:39:00,
2013-01-27 07:44:00,24.4,5.2,30.14,NE,38,0.0,0.0,43,0.00,,SCT012,0.00,VWS V14.01,2013-01-27 12:44:00,
2013-01-27 07:49:00,25.0,5.7,30.14,NE,38,0.0,0.0,43,0.00,,SCT012,0.00,VWS V14.01,2013-01-27 12:49:00,
2013-01-27 07:54:00,25.0,5.1,30.14,NE,38,0.0,0.0,42,0.00,,SCT012,0.00,VWS V14.01,2013-01-27 12:54:00,
2013-01-27 07:59:00,24.8,5.5,30.14,NE,38,0.0,0.0,43,0.00,,SCT012,0.00,VWS V14.01,2013-01-27 12:59:00,
2013-01-27 08:04:00,24.8,5.5,30.14,NE,38,0.0,0.0,43,0.00,,,0.00,VWS V14.01,2013-01-27 13:04:00,
2013-01-27 08:09:00,24.8,5.5,30.14,NE,38,0.0,0.0,43,0.00,,,0.00,VWS V14.01,2013-01-27 13:09:00,
2013-01-27 08:15:00,25.0,5.7,30.14,NE,38,0.0,0.0,43,0.00,,,0.00,VWS V14.01,2013-01-27 13:15:00,
2013-01-27 08:20:00,25.2,5.8,30.14,NE,38,0.0,0.0,43,0.00,,,0.00,VWS V14.01,2013-01-27 13:20:00,
2013-01-27 08:25:00,25.3,6.0,30.14,NE,38,0.0,0.0,43,0.00,,,0.00,VWS V14.01,2013-01-27 13:25:00,
2013-01-27 08:30:00,25.3,6.0,30.11,NE,38,0.0,0.0,43,0.00,,,0.00,VWS V14.01,2013-01-27 13:30:00,
2013-01-27 08:35:00,25.7,6.3,30.11,NE,38,0.0,0.0,43,0.00,,,0.00,VWS V14.01,2013-01-27 13:35:00,
2013-01-27 08:40:00,26.1,6.6,30.11,NE,38,0.0,0.0,43,0.00,,,0.00,VWS V14.01,2013-01-27 13:40:00,
2013-01-27 08:45:00,27.0,7.5,30.14,NE,38,0.0,0.0,43,0.00,,,0.00,VWS V14.01,2013-01-27 13:45:00,
2013-01-27 08:50:00,28.0,8.4,30.14,NE,38,0.0,0.0,43,0.00,,,0.00,VWS V14.01,2013-01-27 13:50:00,
2013-01-27 08:55:00,28.9,9.3,30.14,NE,38,0.0,2.2,43,0.00,,,0.00,VWS V14.01,2013-01-27 13:55:00,
2013-01-27 09:00:00,29.5,9.2,30.14,NE,38,0.0,0.0,42,0.00,,,0.00,VWS V14.01,2013-01-27 14:00:00,
2013-01-27 09:05:00,29.5,9.2,30.14,NE,38,0.0,0.0,42,0.00,,OVC014,0.00,VWS V14.01,2013-01-27 14:05:00,
2013-01-27 09:10:00,29.8,9.6,30.14,NE,53,0.0,0.0,42,0.00,,OVC014,0.00,VWS V14.01,2013-01-27 14:10:00,
2013-01-27 09:15:00,30.7,10.4,30.14,NE,54,0.0,0.0,42,0.00,,OVC014,0.00,VWS V14.01,2013-01-27 14:15:00,
2013-01-27 09:20:00,31.1,10.7,30.14,NE,54,0.0,2.2,42,0.00,,OVC014,0.00,VWS V14.01,2013-01-27 14:20:00,
2013-01-27 09:25:00,31.1,10.2,30.14,SSE,158,4.5,4.5,41,0.00,,OVC014,0.00,VWS V14.01,2013-01-27 14:25:00,
2013-01-27 09:30:00,31.1,10.2,30.14,SSE,158,3.1,3.1,41,0.00,,OVC014,0.00,VWS V14.01,2013-01-27 14:30:00,
2013-01-27 09:35:00,31.5,9.9,30.14,SE,131,0.0,0.0,40,0.00,,OVC014,0.00,VWS V14.01,2013-01-27 14:35:00,
2013-01-27 09:41:00,32.2,10.6,30.14,SSE,149,0.0,2.2,40,0.00,,OVC014,0.00,VWS V14.01,2013-01-27 14:41:00,
2013-01-27 09:46:00,33.3,11.6,30.14,SSE,160,4.0,4.0,40,0.00,,OVC014,0.00,VWS V14.01,2013-01-27 14:46:00,
2013-01-27 09:51:00,33.8,10.9,30.14,SSE,160,2.7,3.6,38,0.00,,OVC014,0.00,VWS V14.01,2013-01-27 14:51:00,
2013-01-27 09:56:00,34.5,10.9,30.14,WNW,302,2.7,2.7,37,0.00,,OVC014,0.00,VWS V14.01,2013-01-27 14:56:00,
2013-01-27 10:01:00,35.1,9.5,30.16,SSE,168,2.7,3.1,34,0.00,,OVC014,0.00,VWS V14.01,2013-01-27 15:01:00,
2013-01-27 10:06:00,35.1,7.5,30.16,SE,146,2.7,3.6,31,0.00,,OVC014,0.00,VWS V14.01,2013-01-27 15:06:00,
2013-01-27 10:11:00,34.9,7.3,30.16,ESE,115,3.1,3.1,31,0.00,,OVC014,0.00,VWS V14.01,2013-01-27 15:11:00,
2013-01-27 10:16:00,34.9,7.3,30.16,SSE,152,2.7,3.6,31,0.00,,OVC014,0.00,VWS V14.01,2013-01-27 15:16:00,
2013-01-27 10:21:00,34.9,7.3,30.16,SSW,199,4.5,4.5,31,0.00,,OVC014,0.00,VWS V14.01,2013-01-27 15:21:00,
2013-01-27 10:27:00,35.1,7.5,30.16,SE,141,3.1,3.6,31,0.00,,OVC014,0.00,VWS V14.01,2013-01-27 15:27:00,
2013-01-27 10:32:00,35.1,7.5,30.16,SSW,195,2.2,2.2,31,0.00,,OVC014,0.00,VWS V14.01,2013-01-27 15:32:00,
2013-01-27 10:37:00,35.4,7.8,30.16,SSE,166,3.6,3.6,31,0.00,,OVC014,0.00,VWS V14.01,2013-01-27 15:37:00,
2013-01-27 10:42:00,35.6,7.2,30.16,SW,219,4.0,4.0,30,0.00,,OVC014,0.00,VWS V14.01,2013-01-27 15:42:00,
2013-01-27 10:47:00,35.8,6.7,30.16,ESE,103,0.0,2.2,29,0.00,,OVC014,0.00,VWS V14.01,2013-01-27 15:47:00,
2013-01-27 10:52:00,37.9,8.5,30.16,SSE,161,4.0,4.0,29,0.00,,OVC014,0.00,VWS V14.01,2013-01-27 15:52:00,
2013-01-27 10:57:00,40.3,8.1,30.16,SSE,163,3.1,3.1,26,0.00,,OVC014,0.00,VWS V14.01,2013-01-27 15:57:00,
2013-01-27 11:02:00,41.9,6.8,30.16,SW,215,3.1,3.1,23,0.00,,OVC016,0.00,VWS V14.01,2013-01-27 16:02:00,
2013-01-27 11:08:00,43.5,8.2,30.16,SSE,154,0.0,2.2,23,0.00,,OVC016,0.00,VWS V14.01,2013-01-27 16:08:00,
2013-01-27 11:13:00,43.7,5.3,30.16,SW,232,2.2,4.0,20,0.00,,OVC016,0.00,VWS V14.01,2013-01-27 16:13:00,
2013-01-27 11:18:00,43.5,5.1,30.16,ESE,104,3.1,3.6,20,0.00,,OVC016,0.00,VWS V14.01,2013-01-27 16:18:00,
2013-01-27 11:23:00,43.5,5.1,30.16,ESE,113,2.7,5.4,20,0.00,,OVC016,0.00,VWS V14.01,2013-01-27 16:23:00,
2013-01-27 11:28:00,44.8,6.2,30.16,South,179,4.0,5.8,20,0.00,,OVC016,0.00,VWS V14.01,2013-01-27 16:28:00,
2013-01-27 11:33:00,46.6,6.5,30.16,SE,131,3.1,4.0,19,0.00,,OVC016,0.00,VWS V14.01,2013-01-27 16:33:00,
2013-01-27 11:38:00,47.5,7.3,30.16,South,181,4.0,4.9,19,0.00,,OVC016,0.00,VWS V14.01,2013-01-27 16:38:00,
2013-01-27 11:43:00,47.7,7.4,30.16,SE,128,3.6,3.6,19,0.00,,OVC016,0.00,VWS V14.01,2013-01-27 16:43:00,
2013-01-27 11:48:00,47.1,7.0,30.16,SSE,155,4.0,5.8,19,0.00,,OVC016,0.00,VWS V14.01,2013-01-27 16:48:00,
2013-01-27 11:53:00,47.8,7.6,30.16,SSW,193,3.6,4.9,19,0.00,,OVC016,0.00,VWS V14.01,2013-01-27 16:53:00,
2013-01-27 11:58:00,48.4,8.0,30.14,SSW,212,5.4,8.1,19,0.00,,OVC016,0.00,VWS V14.01,2013-01-27 16:58:00,
2013-01-27 12:04:00,48.2,7.9,30.14,SE,132,3.6,6.3,19,0.00,,SCT020,0.00,VWS V14.01,2013-01-27 17:04:00,
2013-01-27 12:09:00,48.4,8.0,30.14,SSE,158,5.4,5.4,19,0.00,,SCT020,0.00,VWS V14.01,2013-01-27 17:09:00,
2013-01-27 12:14:00,49.1,8.6,30.14,SW,215,3.6,3.6,19,0.00,,SCT020,0.00,VWS V14.01,2013-01-27 17:14:00,
2013-01-27 12:19:00,50.0,9.4,30.14,SW,229,2.7,5.4,19,0.00,,SCT020,0.00,VWS V14.01,2013-01-27 17:19:00,
2013-01-27 12:24:00,50.0,9.4,30.14,SW,230,2.7,4.9,19,0.00,,SCT020,0.00,VWS V14.01,2013-01-27 17:24:00,
2013-01-27 12:29:00,50.5,9.8,30.14,ESE,114,3.1,4.9,19,0.00,,SCT020,0.00,VWS V14.01,2013-01-27 17:29:00,
2013-01-27 12:34:00,51.1,10.3,30.14,South,171,3.1,4.9,19,0.00,,SCT020,0.00,VWS V14.01,2013-01-27 17:34:00,
2013-01-27 12:39:00,52.0,9.8,30.14,SE,145,2.7,3.1,18,0.00,,SCT020,0.00,VWS V14.01,2013-01-27 17:39:00,
2013-01-27 12:44:00,52.7,10.4,30.14,WSW,238,2.7,2.7,18,0.00,,SCT020,0.00,VWS V14.01,2013-01-27 17:44:00,
2013-01-27 12:49:00,53.8,11.3,30.14,SE,133,4.0,4.0,18,0.00,,SCT020,0.00,VWS V14.01,2013-01-27 17:49:00,
2013-01-27 12:54:00,54.3,11.7,30.14,SE,142,4.0,4.0,18,0.00,,SCT020,0.00,VWS V14.01,2013-01-27 17:54:00,
2013-01-27 12:59:00,54.7,12.0,30.14,SW,224,2.2,4.9,18,0.00,,SCT020,0.00,VWS V14.01,2013-01-27 17:59:00,
2013-01-27 13:04:00,55.4,11.3,30.14,SE,130,4.9,4.9,17,0.00,,CLR,0.00,VWS V14.01,2013-01-27 18:04:00,
2013-01-27 13:09:00,54.9,12.2,30.14,WSW,239,3.6,3.6,18,0.00,,CLR,0.00,VWS V14.01,2013-01-27 18:09:00,
2013-01-27 13:15:00,54.7,12.0,30.11,SSE,151,2.7,5.4,18,0.00,,CLR,0.00,VWS V14.01,2013-01-27 18:15:00,
2013-01-27 13:20:00,55.8,11.6,30.11,ESE,103,4.9,4.9,17,0.00,,CLR,0.00,VWS V14.01,2013-01-27 18:20:00,
2013-01-27 13:25:00,56.3,12.1,30.11,ESE,106,2.7,3.6,17,0.00,,CLR,0.00,VWS V14.01,2013-01-27 18:25:00,
2013-01-27 13:30:00,55.6,11.5,30.11,SW,214,2.7,2.7,17,0.00,,CLR,0.00,VWS V14.01,2013-01-27 18:30:00,
2013-01-27 13:35:00,56.1,11.9,30.11,SSE,161,3.1,3.1,17,0.00,,CLR,0.00,VWS V14.01,2013-01-27 18:35:00,
2013-01-27 13:40:00,56.7,12.4,30.11,West,281,2.7,5.4,17,0.00,,CLR,0.00,VWS V14.01,2013-01-27 18:40:00,
2013-01-27 13:45:00,56.7,12.4,30.11,ESE,117,3.1,3.6,17,0.00,,CLR,0.00,VWS V14.01,2013-01-27 18:45:00,
2013-01-27 13:50:00,57.4,12.9,30.11,SSE,158,3.1,4.0,17,0.00,,CLR,0.00,VWS V14.01,2013-01-27 18:50:00,
2013-01-27 13:55:00,57.0,12.7,30.11,SE,124,3.6,3.6,17,0.00,,CLR,0.00,VWS V14.01,2013-01-27 18:55:00,
2013-01-27 14:00:00,55.9,11.8,30.11,ESE,114,3.1,5.4,17,0.00,,CLR,0.00,VWS V14.01,2013-01-27 19:00:00,
2013-01-27 14:06:00,54.5,11.9,30.11,SSE,150,4.0,4.0,18,0.00,,CLR,0.00,VWS V14.01,2013-01-27 19:06:00,
2013-01-27 14:11:00,53.6,11.1,30.11,ESE,105,4.0,4.0,18,0.00,,CLR,0.00,VWS V14.01,2013-01-27 19:11:00,
2013-01-27 14:16:00,51.3,10.4,30.11,SSW,195,2.7,3.1,19,0.00,,CLR,0.00,VWS V14.01,2013-01-27 19:16:00,
2013-01-27 14:21:00,52.0,9.8,30.11,ESE,117,4.0,4.0,18,0.00,,CLR,0.00,VWS V14.01,2013-01-27 19:21:00,
2013-01-27 14:26:00,54.1,11.6,30.11,SSE,151,3.1,4.0,18,0.00,,CLR,0.00,VWS V14.01,2013-01-27 19:26:00,
2013-01-27 14:31:00,55.2,12.5,30.11,WSW,251,2.7,4.9,18,0.00,,CLR,0.00,VWS V14.01,2013-01-27 19:31:00,
2013-01-27 14:36:00,53.4,11.0,30.11,SSE,150,3.6,4.0,18,0.00,,CLR,0.00,VWS V14.01,2013-01-27 19:36:00,
2013-01-27 14:41:00,54.0,11.4,30.11,SSW,193,5.4,5.4,18,0.00,,CLR,0.00,VWS V14.01,2013-01-27 19:41:00,
2013-01-27 14:46:00,54.9,12.2,30.11,ESE,113,3.1,3.6,18,0.00,,CLR,0.00,VWS V14.01,2013-01-27 19:46:00,
2013-01-27 14:51:00,55.9,11.8,30.11,SE,146,4.0,4.0,17,0.00,,CLR,0.00,VWS V14.01,2013-01-27 19:51:00,
2013-01-27 14:56:00,56.1,11.9,30.11,South,171,3.1,3.1,17,0.00,,CLR,0.00,VWS V14.01,2013-01-27 19:56:00,
2013-01-27 15:01:00,55.0,12.3,30.11,SE,140,0.0,3.1,18,0.00,,SCT095,0.00,VWS V14.01,2013-01-27 20:01:00,
2013-01-27 15:06:00,52.9,10.6,30.11,SE,132,3.6,4.9,18,0.00,,SCT095,0.00,VWS V14.01,2013-01-27 20:06:00,
2013-01-27 15:11:00,50.5,9.8,30.11,SSE,163,4.0,5.4,19,0.00,,SCT095,0.00,VWS V14.01,2013-01-27 20:11:00,
2013-01-27 15:16:00,48.9,8.5,30.11,SSW,204,4.9,5.4,19,0.00,,SCT095,0.00,VWS V14.01,2013-01-27 20:16:00,
2013-01-27 15:22:00,46.4,6.4,30.11,SSW,205,4.0,5.8,19,0.00,,SCT095,0.00,VWS V14.01,2013-01-27 20:22:00,
2013-01-27 15:27:00,44.6,6.0,30.11,SE,132,2.7,4.0,20,0.00,,SCT095,0.00,VWS V14.01,2013-01-27 20:27:00,
2013-01-27 15:32:00,43.7,5.3,30.11,SSE,147,5.8,5.8,20,0.00,,SCT095,0.00,VWS V14.01,2013-01-27 20:32:00,
2013-01-27 15:37:00,43.9,5.4,30.11,SSE,165,5.4,5.4,20,0.00,,SCT095,0.00,VWS V14.01,2013-01-27 20:37:00,
2013-01-27 15:42:00,43.5,5.1,30.11,SE,135,4.0,4.0,20,0.00,,SCT095,0.00,VWS V14.01,2013-01-27 20:42:00,
2013-01-27 15:47:00,43.0,4.7,30.11,SE,145,2.7,3.6,20,0.00,,SCT095,0.00,VWS V14.01,2013-01-27 20:47:00,
2013-01-27 15:52:00,42.8,4.5,30.11,SSW,203,2.2,3.1,20,0.00,,SCT095,0.00,VWS V14.01,2013-01-27 20:52:00,
2013-01-27 15:57:00,42.6,5.4,30.11,South,191,4.0,4.0,21,0.00,,SCT095,0.00,VWS V14.01,2013-01-27 20:57:00,
2013-01-27 16:02:00,43.0,4.7,30.11,SE,137,2.7,4.0,20,0.00,,OVC090,0.00,VWS V14.01,2013-01-27 21:02:00,
2013-01-27 16:07:00,43.2,4.8,30.11,SSE,165,3.1,3.1,20,0.00,,OVC090,0.00,VWS V14.01,2013-01-27 21:07:00,
2013-01-27 16:12:00,43.0,4.7,30.11,SSE,154,4.0,4.0,20,0.00,,OVC090,0.00,VWS V14.01,2013-01-27 21:12:00,
2013-01-27 16:17:00,42.4,5.3,30.14,SSE,165,2.7,2.7,21,0.00,,OVC090,0.00,VWS V14.01,2013-01-27 21:17:00,
2013-01-27 16:22:00,42.1,5.0,30.14,SE,146,0.0,4.0,21,0.00,,OVC090,0.00,VWS V14.01,2013-01-27 21:22:00,
2013-01-27 16:27:00,41.4,4.4,30.14,ESE,123,2.2,2.2,21,0.00,,OVC090,0.00,VWS V14.01,2013-01-27 21:27:00,
2013-01-27 16:32:00,41.0,4.1,30.14,SE,133,2.7,2.7,21,0.00,,OVC090,0.00,VWS V14.01,2013-01-27 21:32:00,
2013-01-27 16:37:00,40.8,3.9,30.14,SE,145,2.7,2.7,21,0.00,,OVC090,0.00,VWS V14.01,2013-01-27 21:37:00,
2013-01-27 16:43:00,40.6,3.8,30.11,SSE,152,3.1,3.1,21,0.00,,OVC090,0.00,VWS V14.01,2013-01-27 21:43:00,
2013-01-27 16:48:00,40.5,3.6,30.11,SSE,161,2.7,3.6,21,0.00,,OVC090,0.00,VWS V14.01,2013-01-27 21:48:00,
2013-01-27 16:53:00,39.7,3.0,30.11,South,172,0.0,2.7,21,0.00,,OVC090,0.00,VWS V14.01,2013-01-27 21:53:00,
2013-01-27 16:58:00,39.2,2.6,30.14,SE,141,0.0,2.2,21,0.00,,OVC090,0.00,VWS V14.01,2013-01-27 21:58:00,
2013-01-27 17:03:00,38.8,2.3,30.14,South,176,4.0,4.0,21,0.00,,OVC090,0.00,VWS V14.01,2013-01-27 22:03:00,
2013-01-27 17:08:00,38.3,4.7,30.14,SW,222,2.7,3.1,24,0.00,,OVC090,0.00,VWS V14.01,2013-01-27 22:08:00,
2013-01-27 17:13:00,37.9,4.4,30.14,SSE,168,3.6,4.0,24,0.00,,OVC090,0.00,VWS V14.01,2013-01-27 22:13:00,
2013-01-27 17:18:00,37.4,3.9,30.14,SE,125,3.6,3.6,24,0.00,,OVC090,0.00,VWS V14.01,2013-01-27 22:18:00,
2013-01-27 17:23:00,37.2,3.8,30.14,South,182,4.9,4.9,24,0.00,,OVC090,0.00,VWS V14.01,2013-01-27 22:23:00,
2013-01-27 17:29:00,36.9,3.5,30.14,SSE,150,3.6,3.6,24,0.00,,OVC090,0.00,VWS V14.01,2013-01-27 22:29:00,
2013-01-27 17:34:00,36.5,3.2,30.14,SW,221,0.0,2.2,24,0.00,,OVC090,0.00,VWS V14.01,2013-01-27 22:34:00,
2013-01-27 17:39:00,36.3,3.0,30.14,SSE,160,2.7,3.1,24,0.00,,OVC090,0.00,VWS V14.01,2013-01-27 22:39:00,
2013-01-27 17:44:00,36.0,5.2,30.14,WSW,239,2.7,4.9,27,0.00,,OVC090,0.00,VWS V14.01,2013-01-27 22:44:00,
2013-01-27 17:49:00,35.8,5.1,30.14,West,262,5.8,6.3,27,0.00,,OVC090,0.00,VWS V14.01,2013-01-27 22:49:00,
2013-01-27 17:54:00,35.4,4.8,30.14,SW,232,0.0,2.2,27,0.00,,OVC090,0.00,VWS V14.01,2013-01-27 22:54:00,
2013-01-27 17:59:00,35.4,4.8,30.14,SSW,213,4.9,4.9,27,0.00,,OVC090,0.00,VWS V14.01,2013-01-27 22:59:00,
2013-01-27 18:04:00,35.4,7.1,30.14,East,90,4.5,4.5,30,0.00,,OVC085,0.00,VWS V14.01,2013-01-27 23:04:00,
2013-01-27 18:09:00,35.4,7.1,30.14,ESE,118,2.2,2.7,30,0.00,,OVC085,0.00,VWS V14.01,2013-01-27 23:09:00,
2013-01-27 18:15:00,35.4,7.1,30.14,SW,218,0.0,0.0,30,0.00,,OVC085,0.00,VWS V14.01,2013-01-27 23:15:00,
2013-01-27 18:20:00,35.4,7.1,30.14,SE,129,2.7,3.6,30,0.00,,OVC085,0.00,VWS V14.01,2013-01-27 23:20:00,
2013-01-27 18:25:00,35.4,7.1,30.14,WSW,240,2.2,3.6,30,0.00,,OVC085,0.00,VWS V14.01,2013-01-27 23:25:00,
2013-01-27 18:30:00,35.2,6.9,30.14,WSW,240,0.0,0.0,30,0.00,,OVC085,0.00,VWS V14.01,2013-01-27 23:30:00,
2013-01-27 18:35:00,35.2,6.9,30.14,South,185,2.7,4.0,30,0.00,,OVC085,0.00,VWS V14.01,2013-01-27 23:35:00,
2013-01-27 18:40:00,35.2,6.9,30.14,SW,230,0.0,0.0,30,0.00,,OVC085,0.00,VWS V14.01,2013-01-27 23:40:00,
2013-01-27 18:45:00,35.2,6.9,30.14,SW,230,0.0,0.0,30,0.00,,OVC085,0.00,VWS V14.01,2013-01-27 23:45:00,
2013-01-27 18:50:00,35.1,6.8,30.14,SE,129,4.0,4.0,30,0.00,,OVC085,0.00,VWS V14.01,2013-01-27 23:50:00,
2013-01-27 18:55:00,35.1,6.8,30.14,SE,129,0.0,2.2,30,0.00,,OVC085,0.00,VWS V14.01,2013-01-27 23:55:00,
2013-01-27 19:01:00,35.1,6.8,30.14,SE,129,0.0,2.2,30,0.00,,OVC080,0.00,VWS V14.01,2013-01-28 00:01:00,
2013-01-27 19:06:00,35.1,6.8,30.14,SE,129,0.0,0.0,30,0.00,,OVC080,0.00,VWS V14.01,2013-01-28 00:06:00,
2013-01-27 19:11:00,35.1,6.8,30.14,SE,129,0.0,0.0,30,0.00,,OVC080,0.00,VWS V14.01,2013-01-28 00:11:00,
2013-01-27 19:16:00,35.1,6.8,30.14,SE,129,0.0,0.0,30,0.00,,OVC080,0.00,VWS V14.01,2013-01-28 00:16:00,
2013-01-27 19:21:00,35.1,6.8,30.14,SE,129,0.0,0.0,30,0.00,,OVC080,0.00,VWS V14.01,2013-01-28 00:21:00,
2013-01-27 19:26:00,35.1,6.8,30.14,SE,129,0.0,0.0,30,0.00,,OVC080,0.00,VWS V14.01,2013-01-28 00:26:00,
2013-01-27 19:31:00,34.9,6.6,30.14,SE,129,0.0,0.0,30,0.00,,OVC080,0.00,VWS V14.01,2013-01-28 00:31:00,
2013-01-27 19:36:00,34.9,6.6,30.14,SE,129,0.0,0.0,30,0.00,,OVC080,0.00,VWS V14.01,2013-01-28 00:36:00,
2013-01-27 19:41:00,34.7,6.4,30.14,SE,129,0.0,0.0,30,0.00,,OVC080,0.00,VWS V14.01,2013-01-28 00:41:00,
2013-01-27 19:46:00,34.5,6.3,30.14,SE,129,0.0,0.0,30,0.00,,OVC080,0.00,VWS V14.01,2013-01-28 00:46:00,
2013-01-27 19:52:00,34.5,6.3,30.14,SE,129,0.0,0.0,30,0.00,,OVC080,0.00,VWS V14.01,2013-01-28 00:52:00,
2013-01-27 19:57:00,34.5,6.3,30.14,SE,129,0.0,0.0,30,0.00,,OVC080,0.00,VWS V14.01,2013-01-28 00:57:00,
2013-01-27 20:02:00,34.3,6.1,30.14,SE,129,0.0,0.0,30,0.00,,OVC042,0.00,VWS V14.01,2013-01-28 01:02:00,
2013-01-27 20:07:00,34.3,6.1,30.14,South,178,0.0,0.0,30,0.00,,OVC042,0.00,VWS V14.01,2013-01-28 01:07:00,
2013-01-27 20:12:00,34.3,6.1,30.14,South,178,0.0,0.0,30,0.00,,OVC042,0.00,VWS V14.01,2013-01-28 01:12:00,
2013-01-27 20:17:00,34.5,6.3,30.14,South,178,0.0,0.0,30,0.00,,OVC042,0.00,VWS V14.01,2013-01-28 01:17:00,
2013-01-27 20:22:00,34.5,6.3,30.14,South,178,0.0,0.0,30,0.00,,OVC042,0.00,VWS V14.01,2013-01-28 01:22:00,
2013-01-27 20:27:00,34.5,6.3,30.14,South,178,0.0,0.0,30,0.00,,OVC042,0.00,VWS V14.01,2013-01-28 01:27:00,
2013-01-27 20:32:00,34.5,6.3,30.14,South,178,0.0,0.0,30,0.00,,OVC042,0.00,VWS V14.01,2013-01-28 01:32:00,
2013-01-27 20:37:00,34.5,6.3,30.14,South,178,0.0,0.0,30,0.00,,OVC042,0.00,VWS V14.01,2013-01-28 01:37:00,
2013-01-27 20:42:00,34.5,6.3,30.14,South,178,0.0,0.0,30,0.00,,OVC042,0.00,VWS V14.01,2013-01-28 01:42:00,
2013-01-27 20:47:00,34.5,6.3,30.14,SE,124,0.0,0.0,30,0.00,,OVC042,0.00,VWS V14.01,2013-01-28 01:47:00,
2013-01-27 20:52:00,34.5,6.3,30.14,SE,124,0.0,0.0,30,0.00,,OVC042,0.00,VWS V14.01,2013-01-28 01:52:00,
2013-01-27 20:57:00,34.5,6.3,30.14,SE,124,0.0,0.0,30,0.00,,OVC042,0.00,VWS V14.01,2013-01-28 01:57:00,
2013-01-27 21:02:00,34.7,6.4,30.14,SE,124,0.0,0.0,30,0.00,,OVC075,0.00,VWS V14.01,2013-01-28 02:02:00,
2013-01-27 21:08:00,34.7,6.4,30.14,SE,124,0.0,0.0,30,0.00,,OVC075,0.00,VWS V14.01,2013-01-28 02:08:00,
2013-01-27 21:13:00,34.5,6.3,30.14,SE,124,0.0,0.0,30,0.00,,OVC075,0.00,VWS V14.01,2013-01-28 02:13:00,
2013-01-27 21:18:00,34.7,6.4,30.14,SE,124,0.0,0.0,30,0.00,,OVC075,0.00,VWS V14.01,2013-01-28 02:18:00,
2013-01-27 21:23:00,34.5,6.3,30.14,SE,124,0.0,0.0,30,0.00,,OVC075,0.00,VWS V14.01,2013-01-28 02:23:00,
2013-01-27 21:28:00,34.5,6.3,30.14,SE,124,0.0,0.0,30,0.00,,OVC075,0.00,VWS V14.01,2013-01-28 02:28:00,
2013-01-27 21:33:00,34.5,6.3,30.14,SE,124,0.0,0.0,30,0.00,,OVC075,0.00,VWS V14.01,2013-01-28 02:33:00,
2013-01-27 21:38:00,34.5,6.3,30.14,SE,124,0.0,0.0,30,0.00,,OVC075,0.00,VWS V14.01,2013-01-28 02:38:00,
2013-01-27 21:43:00,34.3,6.1,30.14,SE,124,0.0,0.0,30,0.00,,OVC075,0.00,VWS V14.01,2013-01-28 02:43:00,
2013-01-27 21:48:00,34.3,6.1,30.14,SSE,157,0.0,0.0,30,0.00,,OVC075,0.00,VWS V14.01,2013-01-28 02:48:00,
2013-01-27 21:53:00,34.2,6.0,30.14,ESE,121,0.0,0.0,30,0.00,,OVC075,0.00,VWS V14.01,2013-01-28 02:53:00,
2013-01-27 21:58:00,34.2,6.0,30.14,SE,126,0.0,0.0,30,0.00,,OVC075,0.00,VWS V14.01,2013-01-28 02:58:00,
2013-01-27 22:03:00,34.2,6.7,30.14,East,92,0.0,0.0,31,0.00,,BKN090,0.00,VWS V14.01,2013-01-28 03:03:00,
2013-01-27 22:09:00,34.2,6.7,30.14,East,92,0.0,0.0,31,0.00,,BKN090,0.00,VWS V14.01,2013-01-28 03:09:00,
2013-01-27 22:14:00,34.2,6.7,30.14,SSE,159,0.0,0.0,31,0.00,,BKN090,0.00,VWS V14.01,2013-01-28 03:14:00,
2013-01-27 22:19:00,34.2,6.7,30.14,SSE,158,2.7,3.1,31,0.00,,BKN090,0.00,VWS V14.01,2013-01-28 03:19:00,
2013-01-27 22:24:00,34.2,6.7,30.14,South,183,0.0,2.7,31,0.00,,BKN090,0.00,VWS V14.01,2013-01-28 03:24:00,
2013-01-27 22:29:00,34.2,6.7,30.14,SSE,147,0.0,0.0,31,0.00,,BKN090,0.00,VWS V14.01,2013-01-28 03:29:00,
2013-01-27 22:34:00,34.2,6.7,30.14,SE,128,2.2,3.6,31,0.00,,BKN090,0.00,VWS V14.01,2013-01-28 03:34:00,
2013-01-27 22:39:00,34.2,6.7,30.14,ESE,105,0.0,0.0,31,0.00,,BKN090,0.00,VWS V14.01,2013-01-28 03:39:00,
2013-01-27 22:44:00,34.2,6.7,30.14,ESE,113,0.0,0.0,31,0.00,,BKN090,0.00,VWS V14.01,2013-01-28 03:44:00,
2013-01-27 22:49:00,34.2,6.7,30.14,SSW,198,2.7,3.1,31,0.00,,BKN090,0.00,VWS V14.01,2013-01-28 03:49:00,
2013-01-27 22:54:00,34.2,6.7,30.14,SSE,152,0.0,0.0,31,0.00,,BKN090,0.00,VWS V14.01,2013-01-28 03:54:00,
2013-01-27 22:59:00,34.2,6.7,30.14,South,186,0.0,2.2,31,0.00,,BKN090,0.00,VWS V14.01,2013-01-28 03:59:00,
2013-01-27 23:04:00,34.2,6.7,30.14,SE,140,0.0,2.7,31,0.00,,BKN090,0.00,VWS V14.01,2013-01-28 04:04:00,
2013-01-27 23:10:00,34.2,6.7,30.14,ESE,121,0.0,0.0,31,0.00,,BKN090,0.00,VWS V14.01,2013-01-28 04:10:00,
2013-01-27 23:15:00,34.2,6.7,30.14,ESE,121,0.0,0.0,31,0.00,,BKN090,0.00,VWS V14.01,2013-01-28 04:15:00,
2013-01-27 23:20:00,34.0,6.5,30.14,ESE,121,0.0,0.0,31,0.00,,BKN090,0.00,VWS V14.01,2013-01-28 04:20:00,
2013-01-27 23:25:00,34.0,6.5,30.14,ESE,121,0.0,0.0,31,0.00,,BKN090,0.00,VWS V14.01,2013-01-28 04:25:00,
2013-01-27 23:30:00,34.0,6.5,30.14,ESE,121,0.0,0.0,31,0.00,,BKN090,0.00,VWS V14.01,2013-01-28 04:30:00,
2013-01-27 23:35:00,34.0,6.5,30.14,ESE,121,0.0,0.0,31,0.00,,BKN090,0.00,VWS V14.01,2013-01-28 04:35:00,
2013-01-27 23:40:00,34.0,6.5,30.14,SW,234,0.0,0.0,31,0.00,,BKN090,0.00,VWS V14.01,2013-01-28 04:40:00,
2013-01-27 23:45:00,34.0,6.5,30.14,SW,234,0.0,0.0,31,0.00,,BKN090,0.00,VWS V14.01,2013-01-28 04:45:00,
2013-01-27 23:50:00,34.0,6.5,30.14,SW,234,0.0,0.0,31,0.00,,BKN090,0.00,VWS V14.01,2013-01-28 04:50:00,
2013-01-27 23:55:00,34.0,6.5,30.14,SW,234,0.0,0.0,31,0.00,,BKN090,0.00,VWS V14.01,2013-01-28 04:55:00,